Campo, CA

1:32 PM PST on December 11, 2019 (GMT -0800)
Campo

Weather History for KCZZ - August, 2019

Change the Weather History Date:

Thursday, August 29, 2019

  Actual Average Record
Temperature  
Mean Temperature 77 °F 73 °F  
Max Temperature 96 °F 94 °F 105 °F (1981)
Min Temperature 57 °F 52 °F 32 °F (2010)
Degree Days  
Heating Degree Days 0 0  
Month to date heating degree days 0 0  
Since 1 June heating degree days 42 63  
Since 1 July heating degree days 6 7  
Cooling Degree Days 12 8  
Month to date cooling degree days 291 258  
Year to date cooling degree days 619 630  
Since 1 June cooling degree days 617 600  
Growing Degree Days 28 (Base 50)    
Moisture  
Dew Point 54 °F    
Average Humidity 48    
Maximum Humidity 73    
Minimum Humidity 23    
Precipitation  
Precipitation 0.00 in 0.02 in 0.20 in (1951)
Month to date precipitation 0.00 0.66  
Year to date precipitation 12.82 11.13  
Sea Level Pressure  
Sea Level Pressure 29.90 in    
Wind  
Wind Speed 7 mph (SSW)    
Max Wind Speed 21 mph    
Max Gust Speed 25 mph    
T = Trace of Precipitation, MM = Missing Value Source: NWS Daily Summary

Daily Weather History Graph

Daily Weather History Graph

Search for Another Location

Airport or City:

Astronomy

Aug. 29, 2019 Rise Set
Actual Time 6:18 AM PDT 7:14 PM PDT
Civil Twilight 5:53 AM PDT 7:39 PM PDT
Nautical Twilight 5:23 AM PDT 8:09 PM PDT
Astronomical Twilight 4:52 AM PDT 8:39 PM PDT
Moon 5:16 AM PDT (8/29) 7:09 PM PDT (8/29)
Length of Visible Light 13h 46m
Length of Day
12h 55m
Waning Crescent, 1% of the Moon is Illuminated
Aug 29
Waning Crescent
Aug 30
New
Sep 5
First Quarter
Sep 13
Full
Sep 21
Last Quarter

Hourly Weather History & Observations

Time (PDT) Temp. Heat Index Dew Point Humidity Pressure Visibility Wind Dir Wind Speed Gust Speed Precip Events Conditions
12:52 AM 64.9 °F - 52.0 °F 63% 29.90 in - NNE 4.6 mph - N/A   Unknown
1:52 AM 63.0 °F - 51.1 °F 65% 29.90 in - NE 5.8 mph - N/A   Unknown
2:52 AM 63.0 °F - 50.0 °F 63% 29.89 in - NE 4.6 mph - N/A   Unknown
3:52 AM 63.0 °F - 50.0 °F 63% 29.91 in - Calm Calm - N/A   Unknown
4:52 AM 60.1 °F - 48.9 °F 67% 29.91 in - NE 4.6 mph - N/A   Unknown
5:52 AM 60.1 °F - 50.0 °F 69% 29.92 in - ENE 5.8 mph - N/A   Unknown
6:52 AM 61.0 °F - 50.0 °F 67% 29.94 in - NE 5.8 mph - N/A   Unknown
7:52 AM 72.0 °F - 54.0 °F 53% 29.94 in - NE 3.5 mph - N/A   Unknown
8:52 AM 82.0 °F 81.2 °F 53.1 °F 37% 29.94 in - Calm Calm - N/A   Unknown
9:52 AM 87.1 °F - 52.0 °F 30% 29.94 in - WSW 4.6 mph - N/A   Unknown
10:52 AM 90.0 °F - 52.0 °F 27% 29.93 in - SW 10.4 mph - N/A   Unknown
11:52 AM 91.9 °F - 51.1 °F 25% 29.91 in - SW 6.9 mph - N/A   Unknown
12:52 PM 93.9 °F - 50.0 °F 22% 29.89 in - SSW 11.5 mph - N/A   Unknown
1:52 PM 93.9 °F 91.4 °F 53.1 °F 25% 29.88 in - SW 15.0 mph 21.9 mph N/A   Unknown
2:52 PM 95.0 °F 93.0 °F 55.0 °F 26% 29.87 in - SW 15.0 mph - N/A   Unknown
3:52 PM 93.9 °F 92.6 °F 57.0 °F 29% 29.86 in - SW 16.1 mph 25.3 mph N/A   Unknown
4:52 PM 91.9 °F 91.2 °F 59.0 °F 33% 29.86 in - SW 12.7 mph - N/A   Unknown
5:52 PM 90.0 °F 89.7 °F 60.1 °F 37% 29.86 in - SW 11.5 mph - N/A   Unknown
6:52 PM 82.0 °F 82.7 °F 61.0 °F 49% 29.88 in - SSW 12.7 mph - N/A   Unknown
7:52 PM 78.1 °F - 61.0 °F 56% 29.89 in - SSW 6.9 mph - N/A   Unknown
8:52 PM 71.1 °F - 57.9 °F 63% 29.90 in - North 4.6 mph - N/A   Unknown
9:52 PM 71.1 °F - 57.9 °F 63% 29.91 in - NNE 3.5 mph - N/A   Unknown
10:52 PM 70.0 °F - 57.9 °F 65% 29.91 in - NNE 3.5 mph - N/A   Unknown
11:52 PM 66.0 °F - 57.0 °F 73% 29.91 in - ENE 5.8 mph - N/A   Unknown